Location: ??????????
(54.7560°N, 39.1389°E)
Time: 05:57:18
(UTC+00:00)

Cosmos 1862 Rocket - Pass Details

Date: 19 May 2025
Orbit: 598 x 627 km, 82.5° (Epoch: 15 June)

Event Time Altitude Azimuth Distance (km) Brightness Sun altitude
Exits shadow 23:41:16 - 182° (S) 2,125 5.8 -9.4°
Reaches altitude 10° 23:41:35 10° 182° (S) 1,994 5.7 -9.4°
Maximum altitude 23:46:00 72° 99° (E) 664 3.8 -9.0°
Drops below altitude 10° 23:50:27 10° 15° (NNE) 2,019 7.5 -8.6°
Sets 23:52:42 0° 14° (NNE) 2,931 8.5 -8.5°
